Location: Linz
(48.3300°N, 14.3000°E)
Time: 02:47:55
(UTC+02:00)

Vanguard 2 - Visible Passes

Search period start: 23 June 2018 00:00
Search period end: 03 July 2018 00:00
Orbit: 553 x 2939 km, 32.9° (Epoch: 22 June)

Date Brightness Start Highest point End Pass type
(mag) Time Alt. Az. Time Alt. Az. Time Alt. Az.
24 Jun 10.1 02:41:15 11° SSE 02:41:15 11° SSE 02:42:53 10° SSE visible
25 Jun 9.9 02:57:43 14° S 02:58:55 15° S 03:02:19 10° SE visible
26 Jun 9.7 03:14:07 15° SSW 03:16:45 18° S 03:20:49 10° SE visible
27 Jun 10.3 01:29:03 12° SE 01:29:03 12° SE 01:30:21 10° SE visible
27 Jun 9.5 03:30:24 14° SSW 03:34:35 20° S 03:38:59 10° SE visible
28 Jun 10.0 01:45:13 18° SSE 01:45:13 18° SSE 01:49:17 10° SE visible
28 Jun 9.4 03:46:33 11° SW 03:52:24 22° S 03:56:57 10° SE visible
29 Jun 9.8 02:01:11 22° S 02:01:59 22° S 02:07:41 10° ESE visible
29 Jun 9.4 04:03:49 10° SW 04:10:10 23° S 04:14:44 10° SE visible
30 Jun 10.5 00:15:35 13° SE 00:15:35 13° SE 00:16:50 10° ESE visible
30 Jun 9.7 02:16:53 22° SSW 02:19:50 25° S 02:25:50 10° ESE visible
30 Jun 9.4 04:21:41 10° WSW 04:27:54 22° SSW 04:32:23 10° SE visible
01 Jul 10.2 00:30:42 21° SSE 00:30:42 21° SSE 00:35:42 10° ESE visible
01 Jul 9.6 02:31:55 18° SW 02:37:40 28° S 02:43:49 10° SE visible
01 Jul 10.8 22:31:05 10° S 22:37:19 14° SSE 22:42:43 10° SE visible
02 Jul 10.0 00:36:12 10° SW 00:46:39 26° SSE 00:54:06 10° ESE visible
02 Jul 9.5 02:46:15 10° WSW 02:55:28 29° S 03:01:39 10° SE visible
02 Jul 10.6 22:45:52 10° S 22:55:05 19° SSE 23:02:34 10° ESE visible
